User: anonymous   Login
Location: Innsbruck
(47.2657°N, 11.3914°E)
Time: 23:53:22
(UTC+01:00)
Language:

BEESAT - Orbit

View from above orbital plane
View from above orbital plane
View from above satellite
View from above satellite

Ground track
Ground track

The orbit data is extracted from the following two-line orbital elements,

1 35933U 09051C   21335.51650463  .00000269  00000-0  71318-4 0  9993
2 35933  98.5815 182.4395 0005006 316.7906  43.2897 14.56671408647356
Epoch (UTC): 01 December 2021 12:23:46
Eccentricity: 0.0005006
inclination: 98.5815°
perigee height: 700 km
apogee height: 707 km
right ascension of ascending node: 182.4395°
argument of perigee: 316.7906°
revolutions per day: 14.56671408
mean anomaly at epoch: 43.2897°
orbit number at epoch: 64735

The dashed part of the orbit path shows where the satellite is in the earth's shadow,  

DLR